sat.trackr.live / text

‹ back to catalog

STARLINK-11450 [DTC]

NORAD 62518 · 2025-004H

PAYLOAD ACTIVE UNKNOWN

§ Identity

Operator
Country
US
Launch date
2025-01-08
Launch site
AFETR
Launch vehicle
Mass (kg)
RCS (m²)

Purposes: comms

External: N2YO · Heavens-Above · Gunter

§ Orbital elements

Epoch: 2026-05-24T21:33:27.425376Z

Period
91.67 min
Inclination
43.0028°
Eccentricity
0.0002713
Mean motion
15.70883161 rev/d
Perigee alt
354.5 km
Apogee alt
358.2 km
Semi-major
6,734.5 km
B*
1.1811e-3
RAAN
331.4127°
Arg perigee
257.5382°
Mean anomaly
102.5182°
Rev number
7,919

§ Raw data

STARLINK-11450 [DTC]1 62518U 25004H   26144.89823409  .00154243  00000+0  11811-2 0  99952 62518  43.0028 331.4127 0002713 257.5382 102.5182 15.70883161 79192

JSON: /api/v1/satellites/62518 · /tle

For live sub-satellite position, see the globe view (requires WebGL).

§ Visibility from observer

Set your observer location to see the next 7 days of passes ≥ 10°. The values pass through the URL so the page stays shareable.

No JS? Fill the form by hand. The geolocation button needs JavaScript.